Wind_Speed
27 17 8 8 8 6 8 10 11 13 13 15 15 17 19 18 18 20 21 20 20 20 22 23 25 29 32 33 34 34 34 35 37 38 39 41 42 43 44 45 46 47 48
27 28 23 17 9 10 11 12 12 12 15 16 18 20 22 19 17 15 14 14 11 9 7 7 10 13 16 20 23 25 28 30 32 35 37 39 42 43 46 48 50 52 53
27 26 28 26 20 15 15 15 14 15 16 17 21 19 14 11 9 7 5 6 6 6 5 6 7 7 7 8 8 9 10 11 12 13 15 18 20 24 26 28 33 37 40
27 24 24 26 26 21 17 14 17 17 14 12 11 8 8 7 6 5 4 4 6 8 8 8 8 8 9 9 10 12 13 15 17 17 18 20 22 24 25 26 26 26 26
27 25 23 22 22 23 20 12 9 9 6 6 7 4 5 6 7 7 7 8 10 10 10 9 11 9 10 11 12 14 15 17 19 20 21 24 27 28 29 31 32 32 32
30 27 25 26 19 20 19 12 9 5 5 3 3 5 7 9 10 10 11 12 12 13 12 13 15 14 16 17 18 19 21 23 24 26 28 30 31 36 36 37 35 37 39
29 29 23 25 26 19 20 14 9 8 8 8 9 9 12 13 14 15 17 16 17 17 19 18 20 20 21 23 23 24 26 29 30 33 37 39 39 39 40 42 42 41 40
33 29 23 24 25 22 17 18 15 12 12 13 13 14 16 18 19 20 21 22 21 23 25 25 26 27 29 29 31 32 33 34 37 40 44 47 49 47 47 48 47 47 46
32 31 24 22 27 22 19 16 14 17 16 17 19 18 19 22 23 24 24 27 27 29 31 32 35 34 36 38 37 41 42 43 45 49 52 51 50 48 45 45 47 49 50
33 31 26 21 25 25 19 19 16 15 18 20 23 23 26 28 27 29 32 32 35 34 37 39 38 41 41 44 46 48 49 51 54 54 52 50 47 48 48 47 47 48 50
35 31 27 22 23 27 19 17 15 17 19 20 22 25 28 30 33 35 36 39 40 41 43 44 47 47 49 51 51 51 57 57 54 51 50 50 49 49 50 51 53 55 56
33 30 27 24 22 26 26 20 19 18 19 21 22 26 31 34 36 37 40 42 45 46 48 49 51 53 55 55 53 51 51 50 49 47 48 48 50 53 56 57 59 60 58
33 30 27 25 24 23 26 26 26 24 21 24 26 28 30 31 32 33 34 35 37 39 43 45 44 43 40 42 44 44 45 47 49 50 52 54 54 55 57 58 55 51 51
33 29 28 28 26 27 28 29 32 29 28 26 24 30 33 34 34 38 39 39 41 39 39 39 39 39 42 42 45 47 50 52 53 56 56 56 57 57 55 51 50 51 52
34 33 31 31 29 28 29 32 32 32 32 32 33 34 37 37 38 41 42 43 41 39 39 41 39 40 42 44 47 50 52 54 55 54 56 56 55 53 50 49 50 53 55
37 37 34 31 30 29 29 32 33 34 32 29 35 37 38 39 42 42 43 39 33 36 36 37 40 40 43 46 48 49 51 54 54 55 53 53 49 49 50 51 54 56 57
41 39 37 34 30 29 29 31 31 30 30 34 36 36 37 40 43 39 31 28 31 37 41 42 43 44 46 44 47 51 53 54 53 51 49 49 50 57 57 57 60 62 63
41 41 36 34 30 27 29 31 34 34 33 36 37 36 39 39 29 32 32 36 40 41 42 43 44 47 43 47 49 50 50 50 48 50 52 55 57 60 64 72 71 75 71
43 42 36 34 29 30 32 32 31 32 32 36 36 35 26 28 31 35 40 41 41 41 42 45 46 43 45 46 47 48 47 48 49 53 57 61 64 68 72 74 79 77 74
47 39 36 34 29 31 34 35 37 35 34 32 29 28 32 35 42 38 37 39 40 41 46 42 42 45 45 46 45 46 49 53 53 56 60 62 66 70 73 74 73 71 69
38 33 36 33 31 31 34 36 31 34 33 29 32 39 41 44 40 35 38 40 42 46 40 42 43 44 48 46 45 47 48 51 58 61 63 68 74 77 74 72 70 70 68
31 34 37 33 32 31 32 32 32 32 29 31 35 39 43 39 37 37 40 42 41 39 42 43 44 45 49 48 50 51 54 56 58 58 64 68 73 73 73 73 71 69 67
37 36 35 33 31 31 31 30 30 29 31 35 40 41 36 36 37 40 40 38 41 44 44 45 48 49 48 50 53 55 58 62 64 67 68 72 72 72 74 76 76 73 69
34 32 30 30 30 31 30 31 33 32 35 38 39 38 37 39 39 36 40 42 45 43 45 48 50 50 51 52 55 58 60 62 65 68 72 71 73 74 78 76 75 74 68
27 29 30 31 31 31 30 32 31 31 36 39 38 40 40 38 36 36 41 45 44 44 48 51 51 51 54 55 57 59 64 66 70 72 72 71 74 76 80 78 75 73 72
29 31 33 34 33 32 33 32 30 31 35 37 40 40 39 37 36 38 43 43 44 46 49 51 52 53 54 56 58 61 64 68 72 74 71 74 77 81 85 82 78 78 78
Wind_Direction
23 18 321 296 300 296 304 286 269 269 268 269 271 278 283 284 278 278 273 267 264 259 257 255 255 255 254 254 252 253 255 257 257 257 260 262 263 263 265 265 265 266 267
15 14 10 5 294 269 265 264 267 264 273 274 275 279 284 280 280 275 264 252 244 239 235 239 244 247 246 251 254 254 255 258 258 259 260 262 262 264 264 265 265 265 264
9 5 5 2 355 336 273 265 267 267 273 276 277 280 278 275 277 272 227 198 196 184 184 196 206 198 208 211 221 225 233 243 248 254 256 258 261 263 264 267 266 263 261
6 358 354 355 352 346 334 296 280 276 280 283 282 282 258 253 216 206 197 196 195 206 209 210 214 225 231 235 238 244 249 248 255 255 256 260 262 266 265 262 262 263 265
354 356 353 345 346 343 350 332 305 292 293 290 303 270 225 206 204 215 230 225 230 227 231 238 234 246 252 259 265 270 269 271 272 269 272 270 270 274 272 273 271 268 265
346 348 344 349 341 345 328 339 309 292 278 239 249 230 215 220 225 240 239 245 249 240 243 247 246 244 253 256 266 268 270 275 279 283 285 291 289 286 283 283 278 276 272
343 341 345 342 342 334 333 316 299 272 240 212 213 235 246 247 244 252 254 256 257 260 253 262 261 260 261 266 265 271 276 279 283 288 290 288 287 282 280 281 283 282 282
339 340 333 336 338 331 317 318 292 266 249 240 237 241 252 257 257 258 263 266 266 264 261 264 261 263 266 269 268 272 276 278 279 281 282 283 284 281 281 279 276 278 280
330 333 331 326 337 329 319 298 294 280 269 263 261 270 276 276 271 274 284 274 273 274 280 282 285 281 272 270 278 280 278 277 278 284 288 287 284 284 283 280 278 278 279
326 325 327 317 324 327 315 305 284 275 276 278 272 277 285 284 286 286 280 284 284 282 285 285 284 284 282 283 279 283 284 285 289 289 290 292 289 287 285 282 285 282 281
324 319 318 315 312 322 317 311 315 301 280 274 276 276 275 274 276 277 280 280 285 278 284 282 281 284 282 285 285 281 285 290 292 293 293 293 291 289 286 284 285 284 283
318 313 310 310 306 311 315 302 305 302 301 301 294 286 281 279 279 280 279 278 278 280 282 283 283 286 288 289 290 292 292 294 293 291 292 291 293 292 291 288 286 285 283
315 313 302 298 300 303 302 304 301 299 291 295 300 301 299 296 297 297 292 290 288 289 288 290 294 295 300 301 301 300 298 295 293 293 294 293 292 291 290 288 286 283 280
310 306 302 292 291 293 296 299 297 305 308 288 293 298 295 293 296 300 299 298 292 295 297 298 296 298 302 304 302 300 301 299 298 298 297 294 292 291 290 288 286 287 285
303 302 300 290 291 294 295 298 294 294 303 298 298 302 300 301 300 298 298 298 296 294 292 296 301 304 305 304 302 300 300 299 297 295 295 295 296 296 296 293 291 290 289
299 300 300 294 293 294 294 296 294 295 295 303 297 297 298 298 296 298 295 293 290 291 300 306 309 307 308 305 303 301 298 298 298 298 298 300 302 301 301 299 297 295 293
299 303 302 299 293 289 295 293 295 294 296 295 298 300 297 300 300 298 291 289 295 305 309 311 311 310 308 304 302 303 302 301 302 303 304 304 306 308 304 302 303 303 299
297 301 300 296 294 292 292 285 288 292 293 293 294 293 297 298 304 303 294 305 309 307 308 308 308 308 307 307 306 303 302 305 306 306 308 309 309 310 313 311 310 308 305
298 301 295 290 288 291 292 295 295 297 293 298 300 296 294 305 304 301 300 305 306 306 306 307 307 307 308 305 304 306 308 307 309 310 312 310 311 312 308 307 309 308 307
296 294 291 288 280 280 285 290 293 296 295 301 293 286 304 311 309 305 302 302 301 305 305 307 309 308 307 307 309 309 310 310 310 310 309 309 308 307 306 308 306 305 299
290 287 288 285 278 278 280 286 293 295 299 298 292 298 305 305 308 303 298 298 302 304 310 311 311 309 310 311 310 310 310 311 312 312 311 311 309 307 307 308 304 302 297
286 286 282 280 277 280 285 290 288 295 299 298 297 301 304 305 307 301 300 304 306 312 312 312 313 316 315 315 314 313 312 311 309 307 307 307 307 312 313 311 309 306 304
289 286 280 277 276 284 292 295 301 302 298 297 298 304 306 309 303 302 307 312 314 312 314 316 319 320 319 316 315 314 315 313 311 311 311 313 316 321 323 320 317 314 310
283 281 279 275 277 285 292 294 296 297 296 297 302 306 308 304 305 309 312 314 312 314 318 320 322 321 319 318 316 317 312 310 309 313 316 321 324 327 326 321 320 316 311
278 280 279 276 275 285 291 290 290 297 297 298 301 307 302 303 310 311 311 309 314 318 321 321 321 320 318 319 318 314 311 314 317 318 322 325 326 328 328 325 320 318 313
279 279 277 276 277 285 288 289 293 294 292 296 299 300 299 306 315 314 308 313 317 320 320 321 321 320 320 317 315 314 317 320 321 322 323 327 326 328 329 327 325 322 315
Height
10816 10813 10812 10810 10809 10807 10807 10806 10806 10805 10803 10800 10798 10796 10795 10795 10795 10794 10792 10791 10790 10788 10787 10786 10785 10784 10784 10784 10785 10785 10786 10786 10786 10786 10786 10787 10786 10786 10785 10785 10784 10783 10783
10817 10814 10811 10808 10807 10805 10804 10802 10801 10801 10800 10798 10796 10794 10793 10792 10791 10790 10789 10787 10786 10785 10784 10782 10781 10780 10780 10779 10779 10780 10780 10780 10780 10780 10781 10779 10779 10777 10777 10776 10775 10775 10774
10818 10815 10812 10809 10804 10802 10800 10799 10798 10796 10795 10794 10792 10791 10790 10789 10788 10788 10786 10786 10785 10784 10783 10782 10781 10779 10778 10778 10777 10777 10777 10776 10776 10776 10776 10773 10773 10772 10770 10769 10768 10766 10765
10819 10816 10813 10809 10805 10801 10798 10796 10794 10793 10791 10790 10789 10789 10787 10787 10786 10786 10786 10785 10784 10783 10783 10782 10781 10780 10779 10778 10777 10776 10775 10774 10772 10772 10772 10770 10769 10768 10766 10764 10762 10761 10760
10820 10816 10811 10809 10807 10803 10800 10796 10793 10792 10789 10788 10788 10788 10787 10786 10786 10785 10785 10784 10783 10783 10782 10781 10780 10779 10778 10777 10776 10774 10773 10772 10769 10769 10767 10766 10764 10763 10761 10759 10757 10755 10754
10818 10816 10812 10808 10806 10803 10800 10797 10795 10792 10791 10788 10788 10788 10787 10786 10786 10785 10784 10783 10783 10781 10780 10779 10778 10776 10774 10773 10772 10770 10769 10768 10766 10764 10763 10761 10759 10757 10755 10753 10751 10749 10748
10819 10814 10812 10809 10804 10802 10800 10797 10795 10793 10790 10788 10787 10787 10786 10785 10785 10784 10783 10782 10780 10779 10777 10775 10774 10772 10770 10768 10767 10766 10765 10763 10762 10760 10758 10756 10753 10751 10748 10746 10744 10741 10740
10817 10813 10811 10808 10804 10801 10798 10797 10795 10792 10790 10788 10786 10785 10785 10784 10783 10782 10781 10780 10778 10776 10774 10771 10769 10767 10765 10764 10762 10759 10758 10756 10755 10754 10751 10749 10746 10743 10740 10737 10735 10733 10730
10815 10812 10809 10806 10803 10800 10797 10795 10793 10791 10790 10788 10787 10785 10784 10783 10781 10779 10778 10776 10775 10773 10771 10769 10766 10764 10761 10758 10756 10753 10751 10749 10746 10745 10742 10739 10735 10733 10730 10728 10725 10723 10721
10813 10810 10807 10804 10801 10798 10795 10792 10790 10788 10787 10786 10784 10783 10781 10779 10777 10775 10774 10772 10770 10768 10765 10763 10760 10758 10755 10751 10749 10746 10743 10741 10738 10733 10730 10727 10725 10722 10720 10718 10715 10713 10710
10809 10806 10804 10802 10799 10796 10792 10789 10787 10785 10783 10781 10779 10777 10776 10774 10773 10771 10769 10766 10763 10762 10759 10756 10753 10749 10746 10743 10740 10737 10735 10732 10728 10724 10721 10717 10714 10711 10708 10706 10702 10699 10696
10805 10802 10800 10798 10796 10794 10791 10788 10786 10783 10780 10778 10775 10772 10770 10768 10766 10764 10761 10759 10757 10754 10751 10748 10744 10741 10738 10734 10730 10728 10725 10721 10717 10714 10711 10707 10704 10700 10696 10692 10688 10684 10680
10802 10799 10796 10794 10792 10790 10787 10785 10783 10780 10777 10774 10771 10768 10765 10762 10759 10757 10754 10751 10748 10745 10741 10739 10736 10733 10729 10726 10723 10719 10715 10712 10708 10703 10700 10695 10690 10686 10681 10676 10672 10669 10666
10797 10794 10792 10789 10786 10785 10782 10780 10778 10775 10772 10768 10766 10763 10760 10757 10754 10750 10747 10744 10741 10737 10735 10732 10729 10726 10722 10718 10714 10711 10706 10701 10696 10689 10685 10680 10676 10672 10668 10665 10660 10656 10652
10790 10788 10786 10783 10781 10779 10777 10774 10772 10770 10767 10763 10759 10757 10754 10751 10747 10744 10741 10737 10733 10730 10727 10724 10722 10718 10714 10710 10705 10700 10694 10688 10683 10680 10671 10668 10664 10660 10656 10653 10648 10643 10639
10783 10780 10779 10777 10775 10773 10771 10769 10766 10764 10761 10758 10754 10751 10748 10745 10741 10738 10734 10730 10726 10723 10720 10717 10714 10710 10706 10701 10695 10689 10682 10677 10671 10667 10663 10655 10652 10648 10643 10639 10635 10629 10623
10777 10774 10772 10771 10769 10766 10764 10762 10759 10757 10754 10751 10747 10745 10742 10738 10734 10730 10726 10723 10720 10716 10712 10709 10705 10702 10697 10691 10685 10678 10672 10665 10660 10655 10650 10646 10642 10632 10629 10625 10617 10612 10606
10770 10767 10765 10763 10761 10759 10757 10755 10752 10749 10747 10744 10741 10737 10735 10731 10727 10724 10721 10718 10714 10709 10706 10702 10698 10692 10687 10681 10675 10668 10663 10655 10650 10644 10638 10632 10627 10621 10614 10600 10598 10589 10582
10762 10760 10758 10756 10754 10752 10750 10748 10745 10742 10740 10737 10733 10731 10728 10725 10723 10719 10716 10711 10707 10703 10700 10695 10690 10685 10680 10672 10666 10658 10653 10646 10641 10633 10626 10619 10611 10605 10596 10587 10578 10568 10558
10755 10752 10750 10749 10747 10746 10743 10741 10738 10735 10733 10730 10727 10724 10721 10718 10715 10712 10708 10704 10700 10696 10692 10687 10682 10675 10670 10664 10657 10651 10643 10635 10631 10625 10618 10609 10602 10594 10584 10571 10561 10554 10547
10747 10744 10742 10741 10740 10738 10736 10733 10731 10728 10726 10724 10721 10717 10714 10712 10708 10704 10700 10696 10693 10688 10683 10678 10673 10666 10659 10655 10648 10642 10638 10631 10617 10610 10603 10592 10584 10576 10568 10558 10548 10537 10530
10739 10738 10735 10734 10733 10731 10729 10726 10724 10721 10719 10717 10715 10711 10707 10704 10700 10696 10692 10688 10684 10679 10675 10670 10663 10658 10649 10642 10636 10631 10624 10618 10614 10607 10597 10586 10574 10559 10547 10538 10527 10518 10508
10732 10730 10727 10727 10725 10724 10722 10719 10716 10714 10712 10710 10707 10703 10700 10696 10692 10688 10684 10680 10675 10671 10665 10659 10653 10647 10642 10634 10627 10620 10612 10604 10595 10584 10576 10566 10554 10542 10529 10516 10505 10494 10488
10724 10722 10721 10719 10718 10717 10715 10712 10709 10707 10705 10702 10699 10696 10692 10689 10685 10681 10677 10672 10668 10663 10656 10649 10644 10638 10631 10626 10617 10610 10602 10594 10584 10573 10558 10549 10536 10526 10514 10501 10490 10478 10470
10717 10715 10713 10712 10710 10709 10707 10704 10702 10699 10697 10694 10691 10689 10685 10682 10678 10674 10670 10665 10660 10654 10647 10641 10635 10629 10622 10615 10608 10599 10588 10577 10567 10558 10548 10535 10520 10510 10498 10486 10473 10461 10449
10710 10707 10705 10704 10702 10700 10699 10696 10694 10692 10690 10686 10684 10682 10678 10674 10670 10667 10662 10657 10652 10645 10639 10633 10626 10620 10613 10605 10597 10587 10576 10565 10555 10544 10536 10522 10507 10495 10482 10468 10454 10440 10424